Regional Weather Roundup
Issued by NWS

Home | Current Version | Previous Version | Graphics & Text | Print | Product List | Glossary On
Versions: 1 2 3 4 5 6 7 8 9 10 11 12 13 14 15 16 17 18 19 20 21 22 23 24 25 26 27 28 29 30 31 32 33 34 35 36 37 38 39 40 41 42 43 44 45 46 47 48 49 50
000
ASUS43 KIND 251300
RWRIN

WEATHER ROUNDUP FOR INDIANA
NATIONAL WEATHER SERVICE INDIANAPOLIS IN
900 AM EDT FRI MAY 25 2018

NOTE: "FAIR" INDICATES FEW OR NO CLOUDS BELOW 12,000 FEET WITH NO
SIGNIFICANT WEATHER AND/OR OBSTRUCTIONS TO VISIBILITY.

* - STATION DOES NOT REPORT WEATHER SUCH AS PRECIPITATION OR FOG.

+ - STATION NOT QUALITY CONTROLLED BY THE NATIONAL WEATHER SERVICE.
    USE DATA WITH CAUTION...ESPECIALLY DEWPOINT AND RELATIVE
    HUMIDITY OBSERVATIONS.

INZ001>003-010>013-019-020-251400-
NORTHWEST INDIANA

CITY           SKY/WX    TMP DP  RH WIND       PRES   REMARKS
GARY /AIRPORT/ SUNNY     75  54  46 S7        29.96F
KNOX *+        FAIR      70  54  56 SW5       29.99R
LA PORTE +     FAIR      69  56  62 SW6       29.99F
MICHIGAN CITY+ FAIR      72  54  53 S8        29.98S
MONTICELLO +   FAIR      70  55  59 S3        29.99S
RENSSELAER +   FAIR      72  50  46 S6        29.99S

$$

LMZ046-743>745-251400-
SOUTHERN LAKE MICHIGAN

STATION/POSITION TIME  TEMP    WIND        PRES    WAVE
                       AIR SEA DIR/SP/G            HT
                 (UTC) (F)     (DEG/KT/KT) (MB)    (FT)
BURNS HARBOR     1240   72     190/ 11/ 13 1015.2S
MICHIGAN CITY    1230   71     170/ 12/ 15   N/A
5NW MICH CITY    1250   64 59  220/  6/  8   N/A     0

$$

INZ004-005-014>016-021>024-251400-
NORTH CENTRAL INDIANA

CITY           SKY/WX    TMP DP  RH WIND       PRES   REMARKS
GOSHEN         FAIR      70  57  63 SW7       29.99F
LOGANSPORT +   FAIR      70  55  60 S3        30.01F
PERU/GRISSOM   FAIR      72  59  63 SW6       30.00S
ROCHESTER +    FAIR      73  54  49 S6        30.00F
SOUTH BEND     FAIR      71  54  54 SW6       29.99S
WARSAW +       FAIR      70  54  56 CALM      30.00F

$$

INZ006>009-017-018-025>027-251400-
NORTHEAST INDIANA

CITY           SKY/WX    TMP DP  RH WIND       PRES   REMARKS
ANGOLA *+      FAIR      68  55  64 SW3       30.00F
AUBURN +       FAIR      70  57  64 CALM      30.02R
FORT WAYNE     FAIR      71  58  63 SW6       30.01F
HUNTINGTON +   FAIR      68  56  67 SW3       30.01S

$$

INZ028-029-035-036-043>045-051>053-251400-
WEST CENTRAL INDIANA

CITY           SKY/WX    TMP DP  RH WIND       PRES   REMARKS
CRAWFORDSVL +  FAIR      69  58  66 S5        30.00F
GREENCASTLE +  FAIR      68  57  68 CALM      30.02F
LAFAYETTE      FAIR      68  58  70 CALM      29.99F
TERRE HAUTE    FAIR      71  59  65 VRB3      30.00F

$$

INZ030>032-037>040-046>048-054>057-064-065-251400-
CENTRAL INDIANA

CITY           SKY/WX    TMP DP  RH WIND       PRES   REMARKS
ANDERSON       FAIR      72  59  63 CALM      30.03F
COLUMBUS       SUNNY     66  57  72 CALM      30.02F
FRANKFORT +    FAIR      76  59  55 CALM      30.02F
GREENWOOD *+   FAIR      71  58  64 CALM      30.03S
INDIANAPOLIS   FAIR      71  58  63 CALM      30.01F
-EAGLE CREEK   FAIR      72  59  63 CALM      30.00F
KOKOMO +       FAIR      71  58  63 SW5       30.02F
MT COMFORT *+  FAIR      72  63  73 S3        30.02F
SHELBYVILLE    FAIR      72  59  63 S3        30.01F
ZIONSVILLE +   FAIR      71  58  64 S6        30.02F

$$

INZ033-034-041-042-049-050-058-059-251400-
EAST CENTRAL INDIANA

CITY           SKY/WX    TMP DP  RH WIND       PRES   REMARKS
MUNCIE         FAIR      74  57  55 SW6       30.02F

$$

INZ060-061-067>069-081>083-085>088-251400-
SOUTHWEST INDIANA

CITY           SKY/WX    TMP DP  RH WIND       PRES   REMARKS
EVANSVILLE     FAIR      71  63  75 CALM      30.00F
HUNTINGBURG +  FAIR      73  63  70 S5        30.01F
WASHINGTON +   FAIR      72  57  60 S5        30.00S

$$

INZ062-063-066-070>080-084-089>092-251400-
SOUTH CENTRAL AND SOUTHEAST INDIANA

CITY           SKY/WX    TMP DP  RH WIND       PRES   REMARKS
BLOOMINGTON    FAIR      70  62  76 CALM      30.01F
FRENCH LICK *+ FAIR      70  50  49 CALM      30.02S

$$





USA.gov is the U.S. government's official web portal to all federal, state and local government web resources and services.